• In Schweiz
  • Länderverzeichnis
  • Für 7 Tage
  • Wassertemperatur
  • Satellitenkarten
  • Wetterkarte
  • Widgets
  • user-avatar
    Anmelden

    Stündliche Wetter Rodnichnoe

    Heute, 20 August, Montag

    Zeit Temperatur Niederschläge Wind Luftdruck Luftfeuchtigkeit
    00:00 +11°C° 0 mm 3 m/S 739 mmHg 81%
    01:00 +11°C° 0 mm 3 m/S 739 mmHg 84%
    02:00 +10°C° 0 mm 3 m/S 739 mmHg 85%
    03:00 +10°C° 0 mm 2 m/S 739 mmHg 87%
    04:00 +9°C° 0 mm 2 m/S 739 mmHg 89%
    05:00 +10°C° 0 mm 2 m/S 739 mmHg 86%
    06:00 +12°C° 0 mm 2 m/S 739 mmHg 83%
    07:00 +12°C° 0 mm 2 m/S 739 mmHg 80%
    08:00 +13°C° 0 mm 3 m/S 739 mmHg 72%
    09:00 +16°C° 0 mm 3 m/S 739 mmHg 64%
    10:00 +18°C° 0 mm 3 m/S 739 mmHg 56%
    11:00 +19°C° 0 mm 3 m/S 739 mmHg 52%
    12:00 +19°C° 0 mm 3 m/S 739 mmHg 48%
    13:00 +20°C° 0 mm 3 m/S 739 mmHg 44%
    14:00 +21°C° 0 mm 3 m/S 739 mmHg 43%
    15:00 +21°C° 0 mm 3 m/S 739 mmHg 42%
    16:00 +21°C° 0 mm 4 m/S 739 mmHg 41%
    17:00 +20°C° 0 mm 3 m/S 738 mmHg 46%
    18:00 +19°C° 0 mm 3 m/S 738 mmHg 51%
    19:00 +18°C° 0 mm 2 m/S 738 mmHg 56%
    20:00 +17°C° 0 mm 2 m/S 738 mmHg 60%
    21:00 +16°C° 0 mm 2 m/S 738 mmHg 63%
    22:00 +15°C° 0 mm 1 m/S 738 mmHg 67%
    23:00 +14°C° 0 mm 1 m/S 738 mmHg 68%

    Morgen, 21 August, Dienstag

    Zeit Temperatur Niederschläge Wind Luftdruck Luftfeuchtigkeit
    00:00 +14°C° 0 mm 1 m/S 738 mmHg 70%
    01:00 +13°C° 0 mm 1 m/S 738 mmHg 72%
    02:00 +13°C° 0 mm 1 m/S 738 mmHg 72%
    03:00 +13°C° 0 mm 1 m/S 738 mmHg 72%
    04:00 +13°C° 0 mm 1 m/S 738 mmHg 73%
    05:00 +14°C° 0 mm 2 m/S 738 mmHg 70%
    06:00 +15°C° 0 mm 2 m/S 738 mmHg 68%
    07:00 +15°C° 0 mm 2 m/S 738 mmHg 66%
    08:00 +17°C° 0 mm 3 m/S 738 mmHg 61%
    09:00 +19°C° 0 mm 4 m/S 738 mmHg 56%
    10:00 +21°C° 0 mm 4 m/S 738 mmHg 52%
    11:00 +22°C° 0 mm 5 m/S 738 mmHg 51%
    12:00 +25°C° 0 mm 5 m/S 738 mmHg 49%
    13:00 +26°C° 0 mm 5 m/S 738 mmHg 48%
    14:00 +27°C° 0,1 mm 6 m/S 737 mmHg 47%
    15:00 +27°C° 0,1 mm 6 m/S 737 mmHg 46%
    16:00 +27°C° 0,1 mm 6 m/S 737 mmHg 45%
    17:00 +26°C° 0 mm 5 m/S 737 mmHg 49%
    18:00 +25°C° 0 mm 4 m/S 736 mmHg 52%
    19:00 +24°C° 0 mm 3 m/S 736 mmHg 56%
    20:00 +22°C° 0 mm 3 m/S 736 mmHg 57%
    21:00 +20°C° 0 mm 3 m/S 736 mmHg 58%
    22:00 +19°C° 0 mm 3 m/S 736 mmHg 59%
    23:00 +19°C° 0 mm 3 m/S 736 mmHg 60%

    übermorgen, 22 August, Mittwoch

    Zeit Temperatur Niederschläge Wind Luftdruck Luftfeuchtigkeit
    00:00 +18°C° 0 mm 3 m/S 736 mmHg 61%
    01:00 +18°C° 0 mm 3 m/S 736 mmHg 61%
    02:00 +17°C° 0 mm 3 m/S 736 mmHg 61%
    03:00 +17°C° 0 mm 3 m/S 735 mmHg 62%
    04:00 +17°C° 0 mm 3 m/S 735 mmHg 62%
    05:00 +17°C° 0 mm 3 m/S 735 mmHg 61%
    06:00 +18°C° 0 mm 3 m/S 735 mmHg 59%
    07:00 +18°C° 0 mm 3 m/S 735 mmHg 58%
    08:00 +21°C° 0 mm 4 m/S 735 mmHg 51%
    09:00 +23°C° 0 mm 5 m/S 735 mmHg 43%
    10:00 +27°C° 0 mm 6 m/S 735 mmHg 35%
    11:00 +28°C° 0 mm 7 m/S 735 mmHg 32%
    12:00 +28°C° 0 mm 7 m/S 735 mmHg 29%
    13:00 +29°C° 0 mm 8 m/S 734 mmHg 27%
    14:00 +29°C° 0 mm 7 m/S 734 mmHg 26%
    15:00 +29°C° 0 mm 7 m/S 734 mmHg 26%
    16:00 +30°C° 0 mm 7 m/S 733 mmHg 26%
    17:00 +28°C° 0 mm 6 m/S 733 mmHg 34%
    18:00 +24°C° 0 mm 6 m/S 733 mmHg 41%
    19:00 +22°C° 0 mm 5 m/S 733 mmHg 48%
    20:00 +21°C° 0 mm 4 m/S 733 mmHg 53%
    21:00 +20°C° 0 mm 3 m/S 733 mmHg 59%
    22:00 +19°C° 0 mm 3 m/S 733 mmHg 65%
    23:00 +18°C° 1,4 mm 3 m/S 733 mmHg 72%

    23 August, Donnerstag

    Zeit Temperatur Niederschläge Wind Luftdruck Luftfeuchtigkeit
    00:00 +17°C° 1,4 mm 3 m/S 733 mmHg 79%
    01:00 +17°C° 1,4 mm 3 m/S 733 mmHg 86%
    02:00 +16°C° 1 mm 3 m/S 733 mmHg 88%
    03:00 +14°C° 1 mm 3 m/S 733 mmHg 90%
    04:00 +14°C° 1 mm 3 m/S 734 mmHg 92%
    05:00 +14°C° 0 mm 4 m/S 734 mmHg 90%
    06:00 +14°C° 0 mm 4 m/S 734 mmHg 88%
    07:00 +13°C° 0 mm 5 m/S 734 mmHg 86%
    08:00 +14°C° 0 mm 5 m/S 735 mmHg 78%
    09:00 +16°C° 0 mm 6 m/S 735 mmHg 71%
    10:00 +17°C° 0 mm 6 m/S 735 mmHg 63%
    11:00 +17°C° 0 mm 6 m/S 735 mmHg 59%
    12:00 +18°C° 0 mm 7 m/S 735 mmHg 55%
    13:00 +18°C° 0 mm 7 m/S 736 mmHg 51%
    14:00 +18°C° 0 mm 7 m/S 736 mmHg 50%
    15:00 +18°C° 0 mm 7 m/S 736 mmHg 48%
    16:00 +18°C° 0 mm 7 m/S 736 mmHg 47%
    17:00 +17°C° 0 mm 6 m/S 737 mmHg 51%
    18:00 +16°C° 0 mm 6 m/S 737 mmHg 54%
    19:00 +15°C° 0 mm 5 m/S 737 mmHg 58%
    20:00 +13°C° 0 mm 4 m/S 738 mmHg 61%
    21:00 +12°C° 0 mm 4 m/S 738 mmHg 64%
    22:00 +11°C° 0 mm 4 m/S 739 mmHg 67%
    23:00 +11°C° 0 mm 3 m/S 739 mmHg 69%

    24 August, Freitag

    Zeit Temperatur Niederschläge Wind Luftdruck Luftfeuchtigkeit
    00:00 +10°C° 0 mm 3 m/S 739 mmHg 72%
    01:00 +10°C° 0 mm 3 m/S 739 mmHg 74%
    02:00 +9°C° 0 mm 3 m/S 739 mmHg 76%
    03:00 +9°C° 0 mm 3 m/S 739 mmHg 77%
    04:00 +9°C° 0 mm 3 m/S 739 mmHg 78%
    05:00 +8°C° 0 mm 4 m/S 739 mmHg 76%
    06:00 +10°C° 0 mm 4 m/S 739 mmHg 73%
    07:00 +10°C° 0 mm 5 m/S 739 mmHg 71%
    08:00 +13°C° 0 mm 5 m/S 739 mmHg 63%
    09:00 +14°C° 0 mm 6 m/S 739 mmHg 55%
    10:00 +16°C° 0 mm 6 m/S 739 mmHg 47%
    11:00 +17°C° 0 mm 6 m/S 739 mmHg 46%
    12:00 +18°C° 0 mm 7 m/S 739 mmHg 45%
    13:00 +20°C° 0 mm 7 m/S 738 mmHg 43%
    14:00 +20°C° 0 mm 7 m/S 738 mmHg 45%
    15:00 +20°C° 0 mm 7 m/S 738 mmHg 46%
    16:00 +20°C° 0 mm 7 m/S 738 mmHg 48%
    17:00 +19°C° 0,1 mm 6 m/S 738 mmHg 54%
    18:00 +17°C° 0,1 mm 5 m/S 737 mmHg 61%
    19:00 +15°C° 0,1 mm 4 m/S 737 mmHg 68%
    20:00 +15°C° 0 mm 4 m/S 737 mmHg 71%
    21:00 +14°C° 0 mm 3 m/S 737 mmHg 74%
    22:00 +14°C° 0 mm 3 m/S 737 mmHg 77%
    23:00 +13°C° 0 mm 3 m/S 737 mmHg 81%

    25 August, Samstag

    Zeit Temperatur Niederschläge Wind Luftdruck Luftfeuchtigkeit
    00:00 +12°C° 0 mm 3 m/S 737 mmHg 85%
    01:00 +12°C° 0 mm 3 m/S 737 mmHg 88%
    02:00 +11°C° 0 mm 3 m/S 737 mmHg 91%
    03:00 +10°C° 0 mm 3 m/S 737 mmHg 93%
    04:00 +9°C° 0 mm 2 m/S 737 mmHg 95%
    05:00 +10°C° 0 mm 3 m/S 737 mmHg 92%
    06:00 +10°C° 0 mm 3 m/S 738 mmHg 89%
    07:00 +11°C° 0 mm 4 m/S 738 mmHg 86%
    08:00 +12°C° 0 mm 4 m/S 738 mmHg 76%
    09:00 +14°C° 0 mm 4 m/S 738 mmHg 67%
    10:00 +15°C° 0 mm 5 m/S 738 mmHg 57%
    11:00 +16°C° 0 mm 5 m/S 738 mmHg 55%
    12:00 +17°C° 0 mm 5 m/S 738 mmHg 52%
    13:00 +19°C° 0 mm 5 m/S 738 mmHg 50%
    14:00 +19°C° 0 mm 5 m/S 738 mmHg 51%
    15:00 +19°C° 0 mm 5 m/S 738 mmHg 52%
    16:00 +20°C° 0 mm 5 m/S 738 mmHg 53%
    17:00 +19°C° 0 mm 4 m/S 738 mmHg 57%
    18:00 +18°C° 0 mm 4 m/S 738 mmHg 62%
    19:00 +17°C° 0 mm 3 m/S 738 mmHg 67%
    20:00 +16°C° 0 mm 3 m/S 738 mmHg 70%
    21:00 +16°C° 0 mm 2 m/S 738 mmHg 74%
    22:00 +15°C° 0 mm 2 m/S 738 mmHg 78%
    23:00 +14°C° 0 mm 2 m/S 738 mmHg 82%
    Mehr zeigen